Time,TemperatureF,DewpointF,PressureIn,WindDirection,WindDirectionDegrees,WindSpeedMPH,WindSpeedGustMPH,Humidity,HourlyPrecipIn,Conditions,Clouds,dailyrainin,SoftwareType,DateUTC
2013-01-21 00:03:00,4.0,-2.0,-100.00,NW,320,14.0,-999.0,74,0.00,,,-99.99,,2013-01-21 06:03:00,
2013-01-21 00:12:00,4.0,-2.0,-100.00,NW,320,12.0,17.0,74,0.00,,,-99.99,,2013-01-21 06:12:00,
2013-01-21 00:23:00,4.0,-2.0,-100.00,NW,325,11.0,17.0,75,0.00,,,-99.99,,2013-01-21 06:23:00,
2013-01-21 00:33:00,4.0,-2.0,-100.00,NW,320,14.0,19.0,75,0.00,,,-99.99,,2013-01-21 06:33:00,
2013-01-21 00:43:00,4.0,-3.0,-100.00,NW,320,14.0,19.0,75,0.00,,,-99.99,,2013-01-21 06:43:00,
2013-01-21 00:52:00,4.0,-3.0,-100.00,NW,315,16.0,20.0,75,0.00,,,-99.99,,2013-01-21 06:52:00,
2013-01-21 01:03:00,4.0,-3.0,-100.00,NW,315,14.0,21.0,75,0.00,,,-99.99,,2013-01-21 07:03:00,
2013-01-21 01:13:00,4.0,-3.0,-100.00,NW,310,17.0,22.0,75,0.00,,,-99.99,,2013-01-21 07:13:00,
2013-01-21 01:22:00,3.0,-3.0,-100.00,NW,320,16.0,21.0,75,0.00,,,-99.99,,2013-01-21 07:22:00,
2013-01-21 01:33:00,3.0,-3.0,-100.00,NW,320,15.0,21.0,75,0.00,,,-99.99,,2013-01-21 07:33:00,
2013-01-21 01:42:00,2.0,-3.0,-100.00,NW,310,16.0,22.0,75,0.00,,,-99.99,,2013-01-21 07:42:00,
2013-01-21 01:52:00,2.0,-4.0,-100.00,NW,320,17.0,26.0,74,0.00,,,-99.99,,2013-01-21 07:52:00,
2013-01-21 02:03:00,2.0,-4.0,-100.00,NW,320,17.0,26.0,74,0.00,,,-99.99,,2013-01-21 08:03:00,
2013-01-21 02:13:00,2.0,-5.0,-100.00,NW,315,18.0,29.0,74,0.00,,,-99.99,,2013-01-21 08:13:00,
2013-01-21 02:22:00,1.0,-6.0,-100.00,NW,315,26.0,32.0,71,0.00,,,-99.99,,2013-01-21 08:22:00,
2013-01-21 02:32:00,1.0,-7.0,-100.00,NW,315,19.0,29.0,71,0.00,,,-99.99,,2013-01-21 08:32:00,
2013-01-21 02:42:00,0.0,-7.0,-100.00,NW,305,16.0,27.0,71,0.00,,,-99.99,,2013-01-21 08:42:00,
2013-01-21 02:53:00,0.0,-7.0,-100.00,NW,305,17.0,26.0,71,0.00,,,-99.99,,2013-01-21 08:53:00,
2013-01-21 03:02:00,0.0,-8.0,-100.00,NW,305,19.0,26.0,71,0.00,,,-99.99,,2013-01-21 09:02:00,
2013-01-21 03:12:00,-1.0,-8.0,-100.00,NW,310,18.0,27.0,72,0.00,,,-99.99,,2013-01-21 09:12:00,
2013-01-21 03:22:00,-1.0,-7.0,-100.00,NW,310,20.0,25.0,74,0.00,,,-99.99,,2013-01-21 09:22:00,
2013-01-21 03:33:00,-2.0,-8.0,-100.00,NW,315,24.0,33.0,74,0.00,,,-99.99,,2013-01-21 09:33:00,
2013-01-21 03:42:00,-2.0,-10.0,-100.00,NW,315,22.0,35.0,70,0.00,,,-99.99,,2013-01-21 09:42:00,
2013-01-21 03:52:00,-3.0,-10.0,-100.00,NW,320,17.0,24.0,70,0.00,,,-99.99,,2013-01-21 09:52:00,
2013-01-21 04:02:00,-3.0,-10.0,-100.00,NW,325,17.0,26.0,70,0.00,,,-99.99,,2013-01-21 10:02:00,
2013-01-21 04:12:00,-3.0,-10.0,-100.00,NW,315,15.0,24.0,71,0.00,,,-99.99,,2013-01-21 10:12:00,
2013-01-21 04:22:00,-3.0,-10.0,-100.00,NW,320,17.0,24.0,71,0.00,,,-99.99,,2013-01-21 10:22:00,
2013-01-21 04:32:00,-3.0,-10.0,-100.00,NW,310,19.0,25.0,71,0.00,,,-99.99,,2013-01-21 10:32:00,
2013-01-21 04:43:00,-3.0,-10.0,-100.00,NW,315,19.0,27.0,71,0.00,,,-99.99,,2013-01-21 10:43:00,
2013-01-21 04:52:00,-3.0,-10.0,-100.00,NW,315,18.0,26.0,71,0.00,,,-99.99,,2013-01-21 10:52:00,
2013-01-21 05:02:00,-3.0,-10.0,-100.00,NW,310,18.0,26.0,71,0.00,,,-99.99,,2013-01-21 11:02:00,
2013-01-21 05:13:00,-3.0,-10.0,-100.00,NW,310,22.0,27.0,72,0.00,,,-99.99,,2013-01-21 11:13:00,
2013-01-21 05:23:00,-3.0,-10.0,-100.00,NW,310,19.0,28.0,71,0.00,,,-99.99,,2013-01-21 11:23:00,
2013-01-21 05:33:00,-3.0,-10.0,-100.00,NW,310,21.0,26.0,71,0.00,,,-99.99,,2013-01-21 11:33:00,
2013-01-21 05:42:00,-4.0,-10.0,-100.00,NW,310,16.0,23.0,71,0.00,,,-99.99,,2013-01-21 11:42:00,
2013-01-21 05:53:00,-4.0,-10.0,-100.00,NW,310,21.0,28.0,72,0.00,,,-99.99,,2013-01-21 11:53:00,
2013-01-21 06:02:00,-4.0,-11.0,-100.00,NW,310,19.0,30.0,71,0.00,,,-99.99,,2013-01-21 12:02:00,
2013-01-21 06:12:00,-4.0,-11.0,-100.00,NW,305,21.0,29.0,70,0.00,,,-99.99,,2013-01-21 12:12:00,
2013-01-21 06:22:00,-5.0,-12.0,-100.00,NW,305,24.0,30.0,70,0.00,,,-99.99,,2013-01-21 12:22:00,
2013-01-21 06:32:00,-5.0,-12.0,-100.00,NW,305,24.0,30.0,70,0.00,,,-99.99,,2013-01-21 12:32:00,
2013-01-21 06:42:00,-6.0,-13.0,-100.00,NW,305,21.0,30.0,69,0.00,,,-99.99,,2013-01-21 12:42:00,
2013-01-21 06:52:00,-6.0,-13.0,-100.00,NW,305,19.0,27.0,70,0.00,,,-99.99,,2013-01-21 12:52:00,
2013-01-21 07:02:00,-6.0,-14.0,-100.00,NW,315,21.0,28.0,70,0.00,,,-99.99,,2013-01-21 13:02:00,
2013-01-21 07:13:00,-6.0,-14.0,-100.00,NW,310,19.0,26.0,70,0.00,,,-99.99,,2013-01-21 13:13:00,
2013-01-21 07:23:00,-7.0,-14.0,-100.00,NW,305,18.0,27.0,69,0.00,,,-99.99,,2013-01-21 13:23:00,
2013-01-21 07:33:00,-7.0,-14.0,-100.00,NW,315,21.0,30.0,69,0.00,,,-99.99,,2013-01-21 13:33:00,
2013-01-21 07:43:00,-7.0,-15.0,-100.00,NW,310,21.0,28.0,69,0.00,,,-99.99,,2013-01-21 13:43:00,
2013-01-21 07:53:00,-7.0,-15.0,-100.00,NW,315,19.0,27.0,68,0.00,,,-99.99,,2013-01-21 13:53:00,
2013-01-21 08:03:00,-8.0,-15.0,-100.00,NW,310,18.0,23.0,69,0.00,,,-99.99,,2013-01-21 14:03:00,
2013-01-21 08:12:00,-8.0,-15.0,-100.00,NW,310,21.0,27.0,69,0.00,,,-99.99,,2013-01-21 14:12:00,
2013-01-21 08:23:00,-8.0,-15.0,-100.00,NW,315,17.0,24.0,69,0.00,,,-99.99,,2013-01-21 14:23:00,
2013-01-21 08:32:00,-7.0,-14.0,-100.00,NW,310,16.0,24.0,69,0.00,,,-99.99,,2013-01-21 14:32:00,
2013-01-21 08:43:00,-6.0,-14.0,-100.00,WNW,300,15.0,21.0,69,0.00,,,-99.99,,2013-01-21 14:43:00,
2013-01-21 08:53:00,-6.0,-14.0,-100.00,WNW,295,15.0,21.0,69,0.00,,,-99.99,,2013-01-21 14:53:00,
2013-01-21 09:03:00,-6.0,-14.0,-100.00,NW,305,16.0,22.0,69,0.00,,,-99.99,,2013-01-21 15:03:00,
2013-01-21 09:13:00,-5.0,-13.0,-100.00,WNW,290,14.0,23.0,69,0.00,,,-99.99,,2013-01-21 15:13:00,
2013-01-21 09:23:00,-5.0,-13.0,-100.00,WNW,300,20.0,24.0,69,0.00,,,-99.99,,2013-01-21 15:23:00,
2013-01-21 09:33:00,-5.0,-13.0,-100.00,NW,320,17.0,24.0,68,0.00,,,-99.99,,2013-01-21 15:33:00,
2013-01-21 09:43:00,-4.0,-12.0,-100.00,NW,305,19.0,22.0,68,0.00,,,-99.99,,2013-01-21 15:43:00,
2013-01-21 09:52:00,-4.0,-12.0,-100.00,NW,310,17.0,28.0,67,0.00,,,-99.99,,2013-01-21 15:52:00,
2013-01-21 10:03:00,-3.0,-11.0,-100.00,NW,315,17.0,23.0,67,0.00,,,-99.99,,2013-01-21 16:03:00,
2013-01-21 10:12:00,-4.0,-12.0,-100.00,NW,325,17.0,23.0,67,0.00,,,-99.99,,2013-01-21 16:12:00,
2013-01-21 10:23:00,-3.0,-11.0,-100.00,NW,305,14.0,22.0,67,0.00,,,-99.99,,2013-01-21 16:23:00,
2013-01-21 10:33:00,-3.0,-11.0,-100.00,WNW,295,19.0,23.0,66,0.00,,,-99.99,,2013-01-21 16:33:00,
2013-01-21 10:43:00,-2.0,-10.0,-100.00,NW,305,15.0,24.0,66,0.00,,,-99.99,,2013-01-21 16:43:00,
2013-01-21 10:53:00,-2.0,-11.0,-100.00,NW,305,17.0,23.0,65,0.00,,,-99.99,,2013-01-21 16:53:00,
2013-01-21 11:02:00,-2.0,-10.0,-100.00,WNW,290,13.0,20.0,65,0.00,,,-99.99,,2013-01-21 17:02:00,
2013-01-21 11:12:00,-1.0,-10.0,-100.00,WNW,295,16.0,22.0,65,0.00,,,-99.99,,2013-01-21 17:12:00,
2013-01-21 11:22:00,-1.0,-9.0,-100.00,NW,305,17.0,23.0,65,0.00,,,-99.99,,2013-01-21 17:22:00,
2013-01-21 11:33:00,-1.0,-10.0,-100.00,NW,305,18.0,23.0,65,0.00,,,-99.99,,2013-01-21 17:33:00,
2013-01-21 11:43:00,0.0,-9.0,-100.00,NW,305,18.0,22.0,65,0.00,,,-99.99,,2013-01-21 17:43:00,
2013-01-21 11:52:00,0.0,-9.0,-100.00,WNW,300,19.0,26.0,64,0.00,,,-99.99,,2013-01-21 17:52:00,
2013-01-21 12:03:00,0.0,-9.0,-100.00,WNW,295,19.0,24.0,64,0.00,,,-99.99,,2013-01-21 18:03:00,
2013-01-21 12:12:00,0.0,-9.0,-100.00,WNW,285,16.0,25.0,64,0.00,,,-99.99,,2013-01-21 18:12:00,
2013-01-21 12:22:00,1.0,-9.0,-100.00,WNW,285,20.0,26.0,64,0.00,,,-99.99,,2013-01-21 18:22:00,
2013-01-21 12:33:00,2.0,-8.0,-100.00,WNW,285,17.0,24.0,64,0.00,,,-99.99,,2013-01-21 18:33:00,
2013-01-21 12:42:00,2.0,-7.0,-100.00,West,280,15.0,24.0,63,0.00,,,-99.99,,2013-01-21 18:42:00,
2013-01-21 12:52:00,2.0,-8.0,-100.00,NW,310,20.0,26.0,63,0.00,,,-99.99,,2013-01-21 18:52:00,
2013-01-21 13:03:00,2.0,-8.0,-100.00,NW,305,20.0,26.0,62,0.00,,,-99.99,,2013-01-21 19:03:00,
2013-01-21 13:12:00,2.0,-8.0,-100.00,WNW,295,16.0,24.0,62,0.00,,,-99.99,,2013-01-21 19:12:00,
2013-01-21 13:22:00,2.0,-7.0,-100.00,NW,305,21.0,25.0,62,0.00,,,-99.99,,2013-01-21 19:22:00,
2013-01-21 13:33:00,2.0,-7.0,-100.00,NW,305,21.0,27.0,62,0.00,,,-99.99,,2013-01-21 19:33:00,
2013-01-21 13:43:00,3.0,-7.0,-100.00,West,275,16.0,23.0,61,0.00,,,-99.99,,2013-01-21 19:43:00,
2013-01-21 13:53:00,4.0,-7.0,-100.00,WNW,290,19.0,24.0,61,0.00,,,-99.99,,2013-01-21 19:53:00,
2013-01-21 14:03:00,4.0,-6.0,-100.00,WNW,290,17.0,24.0,60,0.00,,,-99.99,,2013-01-21 20:03:00,
2013-01-21 14:12:00,4.0,-7.0,-100.00,NW,305,16.0,26.0,59,0.00,,,-99.99,,2013-01-21 20:12:00,
2013-01-21 14:22:00,4.0,-7.0,-100.00,WNW,295,20.0,26.0,58,0.00,,,-99.99,,2013-01-21 20:22:00,
2013-01-21 14:33:00,4.0,-7.0,-100.00,WNW,285,17.0,26.0,58,0.00,,,-99.99,,2013-01-21 20:33:00,
2013-01-21 14:43:00,4.0,-7.0,-100.00,WNW,285,21.0,28.0,58,0.00,,,-99.99,,2013-01-21 20:43:00,
2013-01-21 14:53:00,4.0,-7.0,-100.00,WNW,295,19.0,26.0,57,0.00,,,-99.99,,2013-01-21 20:53:00,
2013-01-21 15:03:00,5.0,-7.0,-100.00,WNW,300,16.0,25.0,57,0.00,,,-99.99,,2013-01-21 21:03:00,
2013-01-21 15:12:00,4.0,-7.0,-100.00,WNW,300,21.0,24.0,57,0.00,,,-99.99,,2013-01-21 21:12:00,
2013-01-21 15:22:00,4.0,-7.0,-100.00,WNW,300,16.0,23.0,57,0.00,,,-99.99,,2013-01-21 21:22:00,
2013-01-21 15:33:00,5.0,-7.0,-100.00,WNW,290,13.0,25.0,57,0.00,,,-99.99,,2013-01-21 21:33:00,
2013-01-21 15:43:00,5.0,-7.0,-100.00,WNW,290,16.0,21.0,57,0.00,,,-99.99,,2013-01-21 21:43:00,
2013-01-21 15:53:00,5.0,-7.0,-100.00,WNW,295,20.0,24.0,57,0.00,,,-99.99,,2013-01-21 21:53:00,
2013-01-21 16:03:00,5.0,-7.0,-100.00,WNW,295,16.0,25.0,57,0.00,,,-99.99,,2013-01-21 22:03:00,
2013-01-21 16:12:00,4.0,-7.0,-100.00,WNW,295,19.0,22.0,58,0.00,,,-99.99,,2013-01-21 22:12:00,
2013-01-21 16:23:00,4.0,-7.0,-100.00,WNW,300,21.0,23.0,58,0.00,,,-99.99,,2013-01-21 22:23:00,
2013-01-21 16:33:00,5.0,-7.0,-100.00,WNW,295,16.0,21.0,58,0.00,,,-99.99,,2013-01-21 22:33:00,
2013-01-21 16:43:00,4.0,-7.0,-100.00,NW,305,17.0,22.0,58,0.00,,,-99.99,,2013-01-21 22:43:00,
2013-01-21 16:52:00,4.0,-7.0,-100.00,WNW,295,18.0,22.0,59,0.00,,,-99.99,,2013-01-21 22:52:00,
2013-01-21 17:03:00,3.0,-7.0,-100.00,WNW,295,18.0,22.0,59,0.00,,,-99.99,,2013-01-21 23:03:00,
2013-01-21 17:12:00,3.0,-8.0,-100.00,WNW,300,17.0,25.0,60,0.00,,,-99.99,,2013-01-21 23:12:00,
2013-01-21 17:22:00,2.0,-8.0,-100.00,WNW,300,16.0,23.0,61,0.00,,,-99.99,,2013-01-21 23:22:00,
2013-01-21 17:33:00,2.0,-8.0,-100.00,NW,305,17.0,22.0,61,0.00,,,-99.99,,2013-01-21 23:33:00,
2013-01-21 17:42:00,2.0,-8.0,-100.00,WNW,300,14.0,22.0,62,0.00,,,-99.99,,2013-01-21 23:42:00,
2013-01-21 17:53:00,2.0,-8.0,-100.00,WNW,295,13.0,20.0,63,0.00,,,-99.99,,2013-01-21 23:53:00,
2013-01-21 18:02:00,2.0,-8.0,-100.00,WNW,300,14.0,18.0,64,0.00,,,-99.99,,2013-01-22 00:02:00,
2013-01-21 18:12:00,1.0,-8.0,-100.00,NW,310,15.0,19.0,64,0.00,,,-99.99,,2013-01-22 00:12:00,
2013-01-21 18:22:00,1.0,-8.0,-100.00,NW,305,12.0,18.0,65,0.00,,,-99.99,,2013-01-22 00:22:00,
2013-01-21 18:33:00,1.0,-8.0,-100.00,NW,310,14.0,18.0,66,0.00,,,-99.99,,2013-01-22 00:33:00,
2013-01-21 18:43:00,1.0,-8.0,-100.00,NW,310,15.0,17.0,67,0.00,,,-99.99,,2013-01-22 00:43:00,
2013-01-21 18:53:00,1.0,-7.0,-100.00,NW,305,15.0,18.0,67,0.00,,,-99.99,,2013-01-22 00:53:00,
2013-01-21 19:02:00,1.0,-8.0,-100.00,WNW,300,14.0,17.0,67,0.00,,,-99.99,,2013-01-22 01:02:00,
2013-01-21 19:12:00,0.0,-8.0,-100.00,NW,305,12.0,16.0,68,0.00,,,-99.99,,2013-01-22 01:12:00,
2013-01-21 19:23:00,0.0,-8.0,-100.00,NW,305,11.0,17.0,68,0.00,,,-99.99,,2013-01-22 01:23:00,
2013-01-21 19:32:00,0.0,-8.0,-100.00,WNW,300,13.0,18.0,69,0.00,,,-99.99,,2013-01-22 01:32:00,
2013-01-21 19:42:00,0.0,-8.0,-100.00,WNW,300,12.0,19.0,69,0.00,,,-99.99,,2013-01-22 01:42:00,
2013-01-21 19:52:00,0.0,-8.0,-100.00,NW,310,10.0,14.0,69,0.00,,,-99.99,,2013-01-22 01:52:00,
2013-01-21 20:02:00,0.0,-8.0,-100.00,WNW,300,11.0,14.0,70,0.00,,,-99.99,,2013-01-22 02:02:00,
2013-01-21 20:12:00,0.0,-8.0,-100.00,NW,305,12.0,15.0,70,0.00,,,-99.99,,2013-01-22 02:12:00,
2013-01-21 20:22:00,-1.0,-8.0,-100.00,NW,305,12.0,14.0,71,0.00,,,-99.99,,2013-01-22 02:22:00,
2013-01-21 20:32:00,-1.0,-8.0,-100.00,NW,305,12.0,16.0,71,0.00,,,-99.99,,2013-01-22 02:32:00,
2013-01-21 20:43:00,-1.0,-8.0,-100.00,NW,320,12.0,15.0,71,0.00,,,-99.99,,2013-01-22 02:43:00,
2013-01-21 20:53:00,-1.0,-8.0,-100.00,NW,310,16.0,20.0,71,0.00,,,-99.99,,2013-01-22 02:53:00,
2013-01-21 21:02:00,-1.0,-8.0,-100.00,NW,310,17.0,21.0,71,0.00,,,-99.99,,2013-01-22 03:02:00,
2013-01-21 21:12:00,-1.0,-8.0,-100.00,NW,315,15.0,22.0,71,0.00,,,-99.99,,2013-01-22 03:12:00,
2013-01-21 21:22:00,-1.0,-8.0,-100.00,NW,310,15.0,20.0,71,0.00,,,-99.99,,2013-01-22 03:22:00,
2013-01-21 21:32:00,-1.0,-9.0,-100.00,NW,315,16.0,20.0,71,0.00,,,-99.99,,2013-01-22 03:32:00,
2013-01-21 21:42:00,-2.0,-9.0,-100.00,NW,320,11.0,20.0,71,0.00,,,-99.99,,2013-01-22 03:42:00,
2013-01-21 21:52:00,-2.0,-9.0,-100.00,NW,315,10.0,16.0,71,0.00,,,-99.99,,2013-01-22 03:52:00,
2013-01-21 22:02:00,-2.0,-9.0,-100.00,NW,310,14.0,19.0,71,0.00,,,-99.99,,2013-01-22 04:02:00,
2013-01-21 22:12:00,-2.0,-9.0,-100.00,NW,310,12.0,18.0,71,0.00,,,-99.99,,2013-01-22 04:12:00,
2013-01-21 22:22:00,-2.0,-9.0,-100.00,NW,310,12.0,16.0,71,0.00,,,-99.99,,2013-01-22 04:22:00,
2013-01-21 22:32:00,-2.0,-9.0,-100.00,NW,310,11.0,13.0,72,0.00,,,-99.99,,2013-01-22 04:32:00,
2013-01-21 22:42:00,-3.0,-9.0,-100.00,NW,315,9.0,13.0,72,0.00,,,-99.99,,2013-01-22 04:42:00,
2013-01-21 22:52:00,-3.0,-9.0,-100.00,NW,315,9.0,12.0,72,0.00,,,-99.99,,2013-01-22 04:52:00,
2013-01-21 23:04:00,-3.0,-9.0,-100.00,NW,310,7.0,11.0,72,0.00,,,-99.99,,2013-01-22 05:04:00,
2013-01-21 23:12:00,-3.0,-10.0,-100.00,NW,305,7.0,11.0,73,0.00,,,-99.99,,2013-01-22 05:12:00,
2013-01-21 23:22:00,-4.0,-10.0,-100.00,West,280,6.0,7.0,73,0.00,,,-99.99,,2013-01-22 05:22:00,
2013-01-21 23:32:00,-4.0,-10.0,-100.00,West,280,6.0,7.0,73,0.00,,,-99.99,,2013-01-22 05:32:00,
2013-01-21 23:42:00,-4.0,-10.0,-100.00,WNW,290,6.0,9.0,74,0.00,,,-99.99,,2013-01-22 05:42:00,
2013-01-21 23:52:00,-4.0,-10.0,-100.00,WNW,290,6.0,9.0,74,0.00,,,-99.99,,2013-01-22 05:52:00,